Location: Gökben Yaylas?
(36.8988°N, 29.6291°E)
Time: 11:50:05
(UTC+00:00)

ACS3 Solar Sail - Pass Details

Date: 15 May 2026
Orbit: 876 x 954 km, 97.2° (Epoch: 9 June)

Event Time Altitude Azimuth Distance (km) Brightness Sun altitude
Rises 23:44:44 0° 359° (N) 3,485 5.6 -28.6°
Reaches altitude 10° 23:47:25 10° 348° (NNW) 2,538 4.5 -28.4°
Enters shadow 23:51:53 28° 296° (WNW) 1,571 2.8 -27.9°
